Location: Limerick
(52.6650°N, 8.6230°W)
Time: 19:45:32
(UTC+01:00)

ISS - Pass Details

Date: 25 July 2017
Orbit: 400 x 408 km, 51.6° (Epoch: 21 July)

Event Time Altitude Azimuth Distance (km) Brightness Sun altitude
Rises 02:15:22 0° 276° (W) 2,314 0.0 -17.3°
Reaches altitude 10° 02:17:28 10° 273° (W) 1,455 -1.1 -17.3°
Maximum altitude 02:20:41 62° 192° (SSW) 456 -3.9 -17.2°
Drops below altitude 10° 02:23:55 10° 111° (ESE) 1,454 -1.1 -17.1°
Sets 02:26:00 0° 108° (ESE) 2,313 -0.1 -17.0°
